User: anonymous   Login
Location: Unspecified
(0.0000°N, 0.0000°E)
Time: 00:38:33
(UTC+00:00)
Language:

Vanguard 3 - Orbit

View from above orbital plane
View from above orbital plane
View from above satellite
View from above satellite

Ground track
Ground track

The orbit data is extracted from the following two-line orbital elements,

1    20U 59007A   19022.51155869  .00000081  00000-0  41294-4 0  9990
2    20  33.3387 205.7274 1665572  71.1857 306.1593 11.55585113171404
Epoch (UTC): 22 January 2019 12:16:38
Eccentricity: 0.1665572
inclination: 33.3387°
perigee height: 509 km
apogee height: 3262 km
right ascension of ascending node: 205.7274°
argument of perigee: 71.1857°
revolutions per day: 11.55585113
mean anomaly at epoch: 306.1593°
orbit number at epoch: 17140

The dashed part of the orbit path shows where the satellite is in the earth's shadow,  

DLR